Wind_Speed
12 9 10 8 8 7 7 5 3 7 5 2 2 3 2 3 2 1 4 6 9 11 13 16 14 8 14 21 23 25 3 6 8 14 4 5 22 21 24 14 23 16 12 7
13 11 12 10 9 9 8 5 5 5 1 3 4 3 3 4 3 1 2 4 3 10 14 9 8 15 22 18 24 11 11 6 12 6 6 7 4 18 19 21 15 19 16 10
15 12 13 12 10 10 9 4 3 4 3 3 2 2 4 2 3 6 5 8 8 12 13 10 13 20 12 23 24 16 14 6 6 8 16 2 6 2 9 19 15 16 15 15
15 15 12 14 12 12 8 3 3 4 5 6 6 4 3 4 2 2 6 5 5 11 7 19 10 20 24 18 11 11 14 9 12 15 19 11 2 12 10 10 20 17 16 15
13 16 15 15 15 14 8 5 4 4 6 7 10 5 4 5 3 3 5 9 9 14 15 15 20 23 21 13 13 16 13 8 16 18 9 12 3 4 3 12 14 16 12 19
15 15 17 18 18 18 6 7 7 4 7 7 6 6 6 3 2 5 10 8 14 15 16 21 32 33 34 24 21 18 9 7 11 7 14 5 4 9 2 3 3 4 10 3
17 17 19 22 21 19 12 9 8 5 4 6 7 4 6 7 8 11 14 15 14 12 24 34 28 23 21 16 12 12 8 10 5 10 11 3 4 10 3 5 4 5 5 6
17 16 19 23 22 20 16 13 9 6 4 7 8 9 10 11 12 13 15 15 9 17 18 11 10 6 4 2 1 3 9 7 5 5 8 2 5 9 9 8 6 11 4 9
17 19 21 21 22 21 18 13 13 6 3 6 10 8 10 9 8 7 7 8 10 6 4 4 6 4 6 3 6 3 2 6 5 6 5 3 5 15 19 4 3 6 6 10
20 19 20 22 23 22 20 11 16 10 7 9 6 6 4 4 4 5 8 6 5 3 3 5 4 3 7 4 7 8 7 3 4 5 3 6 14 20 18 4 8 14 10 16
22 18 18 25 25 24 22 13 16 14 8 11 8 10 13 12 10 7 2 6 1 3 3 3 3 3 4 5 8 8 5 5 2 4 3 4 23 11 10 13 20 10 14 9
23 20 19 23 24 24 21 11 16 16 12 7 9 11 18 20 15 12 5 6 5 4 4 2 3 6 4 7 4 1 3 6 6 5 6 14 17 14 17 17 6 9 7 3
24 22 22 24 24 23 21 13 13 15 10 14 17 16 13 16 21 17 10 6 7 3 2 3 2 4 4 5 5 6 4 11 3 7 4 10 16 16 16 15 14 11 13 12
24 23 22 24 23 19 20 17 16 15 4 4 5 9 14 9 9 17 23 19 5 3 4 4 4 4 5 6 9 10 7 6 11 10 9 14 19 21 14 13 14 15 15 16
26 23 23 22 24 22 17 16 14 13 9 3 7 16 14 14 15 14 17 17 16 13 4 3 5 8 7 7 5 5 3 3 4 3 12 3 11 16 12 11 13 12 12 15
27 23 23 24 23 23 18 9 16 17 13 4 3 5 6 5 7 14 16 15 12 8 5 6 6 11 6 3 3 8 7 5 8 6 4 14 4 18 14 15 13 12 12 13
27 23 22 22 25 26 17 5 5 15 16 3 4 4 2 5 7 8 10 13 9 8 6 7 11 11 5 4 10 2 5 6 8 12 9 5 15 10 12 12 11 10 11 11
28 20 22 24 22 19 19 10 6 12 14 4 3 3 3 7 5 6 8 8 10 9 7 5 8 6 6 4 5 5 7 3 10 8 9 7 7 10 9 8 8 8 8 8
25 24 25 21 19 12 11 14 10 11 4 3 4 3 1 6 4 4 8 8 4 7 5 5 5 4 5 3 3 5 8 6 8 2 7 7 8 9 10 9 8 7 7 6
26 27 11 5 11 9 11 8 7 8 7 7 4 7 3 6 6 6 4 8 4 4 7 6 4 4 7 6 6 5 6 7 8 4 7 9 9 10 9 8 7 7 6 6
24 12 10 9 19 13 8 7 8 8 5 8 8 17 11 7 5 4 5 2 2 3 4 4 4 3 4 4 5 5 6 6 7 5 4 6 6 7 7 7 7 5 4 4
19 12 16 19 10 8 6 6 5 6 5 7 5 6 11 7 8 7 4 3 4 4 9 3 2 3 4 3 5 6 6 6 6 6 5 6 6 6 5 4 4 4 3 3
17 7 5 7 6 5 5 8 4 4 6 8 7 4 6 6 7 4 3 5 4 7 4 1 3 8 5 4 3 4 6 7 6 6 6 6 6 6 5 5 3 3 3 2
6 7 6 4 4 5 3 5 3 4 4 10 10 6 4 5 4 2 4 1 1 4 5 2 3 6 5 4 4 4 5 7 7 8 8 7 6 7 7 7 6 4 2 1
4 2 2 3 3 4 5 7 6 4 6 8 5 2 5 4 3 3 3 3 2 3 3 3 7 5 4 3 3 3 4 5 7 8 8 7 7 7 7 7 7 7 6 5
3 4 2 4 4 4 4 6 6 5 4 5 2 2 3 4 2 3 1 2 1 3 3 7 6 5 4 2 2 2 2 3 6 7 7 7 7 7 7 7 6 6 5 5
2 2 4 3 5 5 4 2 2 2 3 2 3 4 1 1 3 3 2 2 3 9 9 6 6 5 4 3 2 1 2 3 5 6 6 7 7 7 5 5 5 5 5 5
Wind_Direction
205 209 188 193 177 164 155 150 128 170 87 184 147 157 151 277 263 156 269 275 273 279 309 303 304 275 300 314 332 323 334 293 288 264 350 346 224 211 202 209 217 236 257 221
198 198 196 198 180 171 159 129 114 178 163 196 176 146 225 243 253 341 287 278 279 296 305 309 299 297 312 322 332 327 335 314 339 304 181 46 319 232 216 222 235 216 222 216
195 202 202 196 181 174 165 139 136 146 188 185 168 183 215 223 242 279 249 278 281 320 306 290 296 299 313 320 320 329 339 293 309 319 313 88 161 237 284 242 228 229 216 213
189 202 199 194 185 182 167 132 157 164 169 182 198 216 199 240 276 231 271 244 270 334 302 314 301 315 314 323 321 321 335 290 315 321 318 335 213 166 202 254 240 236 232 234
187 202 208 200 193 185 181 145 162 171 151 164 199 193 217 232 237 250 262 257 319 311 294 295 303 311 306 308 308 325 315 284 321 313 278 334 149 138 197 182 236 246 252 249
196 202 215 206 197 187 175 171 151 155 163 188 206 217 228 210 268 261 254 292 307 297 302 308 295 287 280 273 282 296 281 303 323 297 336 322 93 353 354 192 162 279 216 248
201 214 219 205 202 196 201 182 161 187 196 213 211 209 222 240 259 277 283 289 288 297 308 305 294 277 265 265 264 235 269 295 291 301 316 50 36 6 331 314 314 316 274 153
202 204 203 203 206 201 206 201 179 190 235 229 216 231 245 270 269 265 276 287 291 304 302 300 311 311 253 193 210 336 219 284 295 309 315 287 52 11 360 342 320 329 224 139
198 205 212 204 205 202 201 201 199 187 240 233 240 247 253 269 271 271 261 294 307 302 278 273 282 303 323 324 323 114 134 250 276 324 316 352 34 340 328 275 223 317 162 140
198 200 207 211 207 204 197 206 202 194 212 243 207 216 262 211 233 272 293 327 316 298 293 280 298 320 314 313 318 336 324 322 301 302 279 289 0 336 323 262 9 329 103 77
200 199 205 209 206 206 202 205 203 199 224 249 234 237 239 245 251 266 319 306 176 287 278 299 350 299 345 304 331 310 302 320 313 318 285 281 3 350 5 324 319 313 107 115
199 197 196 200 199 204 200 200 204 213 226 270 244 246 246 243 252 268 240 282 300 308 287 333 320 307 306 329 297 189 305 357 315 308 321 324 343 339 335 335 318 323 149 156
195 195 199 199 198 202 203 204 203 203 236 271 263 262 269 249 243 232 234 242 224 246 299 317 296 280 295 303 319 320 303 309 263 305 72 27 20 16 8 20 37 66 78 99
187 190 189 194 195 201 199 207 205 202 199 263 272 269 262 246 251 230 223 228 233 279 263 276 277 281 291 300 294 288 286 315 319 285 343 345 19 12 14 37 50 63 78 82
186 188 190 192 192 199 199 206 212 213 210 313 288 293 285 250 235 221 215 218 226 236 253 264 265 274 284 259 266 254 56 353 336 342 355 14 16 11 19 51 55 68 67 76
177 178 185 185 185 187 184 207 227 217 214 262 283 295 270 275 204 204 205 203 211 207 206 235 244 255 257 266 284 78 59 38 28 324 328 37 341 24 33 50 57 68 75 82
175 174 179 182 182 186 179 201 191 201 194 223 269 253 202 154 156 165 180 192 195 197 220 235 253 262 237 268 272 14 37 52 22 17 22 354 19 360 26 32 35 48 52 58
174 173 167 170 175 186 201 223 212 167 174 212 257 252 225 179 179 175 177 177 192 206 229 229 241 258 227 257 82 64 31 15 28 22 30 22 1 7 20 36 39 36 35 41
162 156 156 157 174 183 201 218 213 136 198 237 215 248 75 174 195 158 180 177 186 211 220 233 219 232 230 44 40 45 33 31 349 328 15 9 14 9 11 21 30 34 18 21
151 152 153 159 172 139 187 157 180 204 213 224 255 225 234 186 178 202 221 187 213 205 210 182 223 225 90 75 72 62 37 24 14 12 351 356 2 1 1 8 11 19 10 15
150 157 171 157 158 163 182 191 198 181 208 210 233 224 225 217 204 221 227 249 184 227 169 212 209 162 105 78 57 47 36 33 32 33 5 357 353 345 346 354 4 359 355 341
155 155 147 150 169 197 201 177 170 206 223 184 201 211 207 207 211 225 184 241 211 236 145 217 202 96 98 74 52 37 30 31 33 29 15 10 2 356 347 346 344 342 322 306
143 146 190 184 178 182 199 174 176 194 187 179 170 171 175 201 211 206 225 229 211 132 198 99 57 119 103 71 52 39 37 38 43 37 27 13 360 1 7 7 4 344 328 318
153 211 169 204 174 210 183 192 139 117 147 158 167 150 185 194 188 239 270 182 264 207 187 109 110 112 101 76 52 46 35 40 32 29 24 20 17 20 21 23 28 39 60 97
248 286 194 171 112 88 100 110 110 108 130 143 166 190 207 180 243 211 256 219 139 13 72 105 115 112 105 86 64 58 42 35 30 25 23 25 27 27 29 31 31 33 44 64
10 26 149 119 145 127 97 94 109 126 145 159 199 229 206 207 251 211 23 292 53 108 98 120 123 116 101 86 52 31 31 25 22 23 27 27 30 33 36 36 40 49 56 66
49 80 66 45 62 111 106 96 119 166 154 212 208 220 120 102 165 138 12 49 86 129 124 115 111 109 89 59 45 24 357 358 7 15 22 25 30 36 38 40 40 47 55 64
Height
1484 1485 1487 1490 1491 1493 1495 1495 1498 1500 1500 1503 1501 1495 1500 1505 1500 1499 1499 1499 1495 1492 1487 1478 1471 1471 1463 1458 1452 1443 1441 1432 1402 1383 1380 1376 1369 1373 1371 1376 1378 1372 1365 1363
1481 1482 1485 1488 1489 1491 1494 1495 1497 1500 1501 1498 1496 1500 1502 1502 1498 1497 1497 1494 1493 1491 1484 1481 1466 1461 1458 1456 1455 1447 1440 1427 1398 1380 1383 1391 1389 1371 1367 1367 1365 1367 1375 1366
1478 1480 1482 1485 1488 1490 1492 1494 1496 1501 1501 1501 1499 1503 1499 1497 1498 1497 1497 1495 1493 1487 1479 1474 1467 1460 1456 1457 1453 1449 1441 1436 1427 1421 1406 1385 1396 1398 1383 1372 1371 1368 1360 1359
1474 1478 1480 1483 1485 1488 1491 1491 1493 1493 1495 1498 1499 1501 1497 1495 1495 1497 1496 1490 1488 1489 1483 1471 1461 1459 1452 1451 1447 1445 1442 1431 1420 1412 1404 1386 1385 1390 1397 1386 1374 1372 1363 1361
1472 1475 1477 1481 1484 1487 1489 1490 1491 1494 1494 1497 1498 1498 1492 1492 1494 1496 1491 1490 1487 1488 1481 1475 1467 1464 1458 1453 1445 1445 1440 1432 1419 1406 1404 1385 1383 1386 1382 1385 1385 1372 1370 1364
1469 1471 1474 1478 1480 1485 1486 1487 1489 1491 1493 1494 1493 1490 1490 1491 1496 1493 1492 1491 1490 1484 1477 1474 1469 1463 1455 1453 1449 1448 1443 1430 1423 1400 1391 1391 1385 1386 1381 1380 1379 1376 1373 1365
1464 1467 1470 1474 1477 1481 1484 1486 1489 1492 1488 1487 1488 1491 1492 1492 1493 1493 1491 1491 1487 1481 1477 1468 1456 1446 1442 1443 1441 1444 1439 1431 1423 1409 1391 1400 1390 1388 1382 1382 1380 1379 1375 1374
1460 1463 1466 1470 1474 1478 1482 1484 1488 1489 1487 1486 1487 1490 1490 1491 1490 1489 1487 1485 1484 1482 1476 1463 1447 1435 1433 1432 1434 1432 1437 1432 1421 1414 1399 1389 1395 1394 1395 1391 1382 1382 1377 1379
1455 1460 1464 1467 1471 1475 1479 1482 1485 1488 1489 1484 1486 1487 1488 1487 1483 1483 1483 1483 1481 1479 1472 1467 1454 1444 1438 1430 1429 1432 1432 1433 1428 1415 1415 1398 1398 1396 1395 1392 1389 1384 1382 1384
1450 1456 1460 1464 1468 1472 1476 1480 1482 1486 1487 1484 1486 1485 1483 1486 1485 1482 1481 1482 1479 1477 1471 1461 1453 1452 1444 1439 1437 1431 1427 1424 1422 1413 1415 1403 1405 1401 1390 1389 1396 1392 1387 1393
1447 1451 1455 1459 1465 1469 1473 1477 1479 1483 1483 1481 1483 1483 1484 1484 1485 1482 1481 1480 1479 1474 1469 1463 1457 1453 1446 1446 1445 1442 1437 1428 1422 1417 1416 1411 1408 1400 1401 1405 1399 1394 1395 1398
1442 1447 1451 1456 1461 1466 1471 1475 1477 1479 1481 1480 1478 1479 1479 1481 1482 1483 1482 1482 1483 1478 1472 1465 1462 1459 1454 1448 1446 1445 1438 1444 1437 1428 1411 1414 1417 1417 1413 1408 1402 1401 1401 1401
1438 1443 1447 1453 1459 1463 1468 1472 1474 1477 1479 1477 1475 1472 1473 1472 1474 1479 1481 1480 1480 1480 1480 1478 1475 1472 1460 1451 1443 1449 1445 1442 1439 1435 1425 1427 1425 1420 1417 1412 1409 1400 1404 1405
1434 1440 1445 1450 1456 1461 1465 1469 1472 1474 1477 1475 1468 1467 1467 1468 1469 1471 1473 1477 1478 1479 1479 1478 1471 1467 1460 1453 1454 1453 1449 1446 1441 1430 1428 1428 1426 1425 1422 1418 1414 1411 1411 1410
1431 1437 1443 1448 1453 1459 1464 1467 1468 1471 1476 1471 1467 1465 1462 1462 1463 1466 1469 1473 1476 1478 1478 1475 1471 1464 1461 1454 1452 1447 1449 1449 1445 1437 1441 1436 1436 1430 1425 1420 1419 1416 1416 1415
1428 1435 1440 1445 1450 1457 1462 1465 1466 1467 1471 1473 1467 1462 1459 1459 1460 1463 1467 1470 1473 1475 1475 1473 1467 1462 1462 1453 1443 1449 1449 1450 1449 1447 1442 1440 1436 1433 1429 1425 1423 1421 1418 1418
1427 1433 1437 1443 1448 1453 1460 1461 1460 1461 1468 1471 1467 1457 1457 1457 1459 1462 1464 1467 1468 1471 1471 1467 1461 1458 1458 1451 1445 1445 1450 1449 1448 1445 1441 1440 1437 1436 1432 1429 1426 1424 1424 1423
1426 1431 1436 1442 1449 1455 1457 1457 1458 1461 1466 1468 1464 1456 1455 1455 1456 1458 1460 1463 1465 1465 1462 1460 1456 1453 1453 1444 1444 1450 1450 1449 1448 1447 1445 1443 1440 1438 1434 1432 1430 1428 1427 1426
1425 1431 1438 1443 1447 1451 1454 1456 1460 1461 1466 1462 1459 1451 1447 1452 1453 1454 1457 1458 1459 1457 1455 1452 1453 1446 1442 1445 1447 1450 1451 1450 1449 1447 1445 1444 1441 1439 1436 1434 1433 1432 1431 1427
1425 1432 1438 1441 1444 1449 1453 1458 1460 1461 1459 1459 1454 1448 1447 1450 1450 1450 1451 1450 1446 1444 1443 1444 1444 1436 1448 1450 1451 1451 1451 1451 1449 1446 1445 1443 1441 1439 1437 1435 1433 1433 1433 1430
1423 1430 1436 1439 1443 1449 1451 1451 1452 1452 1451 1448 1443 1442 1443 1446 1446 1446 1446 1441 1440 1434 1433 1437 1431 1433 1449 1451 1452 1452 1451 1451 1449 1448 1446 1444 1442 1440 1439 1437 1434 1432 1431 1431
1421 1424 1431 1437 1442 1443 1442 1439 1442 1441 1435 1436 1437 1438 1440 1440 1442 1441 1442 1438 1437 1429 1432 1433 1426 1447 1451 1452 1452 1452 1452 1451 1449 1447 1446 1443 1441 1440 1438 1436 1434 1433 1433 1432
1421 1425 1426 1427 1429 1426 1427 1428 1428 1428 1428 1431 1433 1436 1437 1439 1440 1438 1437 1429 1425 1428 1428 1427 1442 1450 1452 1452 1453 1453 1452 1451 1449 1447 1445 1442 1441 1439 1437 1435 1434 1433 1433 1431
1419 1420 1415 1416 1419 1417 1417 1416 1416 1424 1426 1429 1431 1433 1435 1435 1435 1433 1428 1426 1425 1420 1422 1433 1447 1451 1452 1453 1453 1452 1451 1450 1449 1447 1445 1443 1441 1439 1437 1435 1434 1433 1432 1432
1416 1414 1409 1414 1416 1417 1419 1420 1422 1424 1426 1428 1431 1431 1432 1431 1430 1427 1425 1422 1424 1429 1433 1445 1449 1451 1452 1452 1452 1451 1451 1450 1449 1448 1446 1444 1442 1440 1438 1436 1434 1433 1432 1431
1416 1416 1415 1416 1417 1419 1420 1422 1424 1425 1426 1428 1429 1427 1426 1425 1425 1424 1426 1424 1424 1439 1444 1449 1451 1452 1452 1452 1451 1451 1451 1450 1449 1448 1446 1444 1442 1441 1439 1437 1436 1435 1434 1433
1419 1420 1420 1420 1419 1420 1422 1423 1425 1425 1427 1425 1425 1423 1422 1427 1425 1430 1436 1434 1441 1445 1448 1450 1451 1452 1451 1451 1451 1450 1450 1449 1449 1448 1446 1445 1443 1441 1441 1439 1438 1436 1436 1434